Погода в Толанаро

Мадагаскар     25°00′38″S   46°58′26″E
темп.,
°C
ветер,
м/с
пор.,
м/с
влажн.,
%
обл.,
%
осадки,
мм/ч
давл.,
гПа
погр.,
м
10 августа, ср
ср1000:00+19всв71281100 0.4 10251078
03:00+20всв71178100 0.8 1024942
06:00+19св7117894 0.1 10251054
09:00+20св7117792 0.3 10261207
12:00+22св7116614 0.2 10251408
15:00+22св7116859 0.3 10241326
18:00+19св5117790 0.1 1025889
21:00+19ссв612805 0.2 1025860
11 августа, чт
чт1100:00+18св6128246 0.1 1025818
03:00+19ссв611780 0.3 1024963
06:00+18ссв5128042 0.1 1024808
09:00+20св6117491 0.3 10261279
12:00+23св710622 0.2 10241484
15:00+22св710645 0.3 10231336
18:00+20св612740 0.0 1024881
21:00+18ссв410823 0.0 1025524
12 августа, пт
пт1200:00+18ссв511841 0.1 1024653
03:00+17ссв4108821 0.1 1023482
06:00+18ссв5118644 0.3 1024585
09:00+21св610690 0.4 10241153
12:00+24св710600 0.1 10231438
15:00+23св710615 0.1 10201311
18:00+20св611800 0.0 1021721
21:00+19ссв613820 0.0 1022704
13 августа, сб
сб1300:00+19ссв613840 0.0 1021655
03:00+18ссв512890 0.0 1020533
06:00+17ссв410911 0.0 1020341
09:00+22ссв510670 0.0 1021669
12:00+25св67540 0.0 1018893
15:00+24св78630 0.0 1017775
18:00+21св611820 0.0 1017587
21:00+20ссв612850 0.0 1018603
14 августа, вс
вс1400:00+19ссв613860 0.0 1017566
03:00+17ссв46922 0.0 1016213
06:00+16с35880 0.0 1016130
09:00+22ссв46630 0.0 1017427
12:00+27св44500 0.0 1015795
15:00+26св68580 0.0 1013647
18:00+21ссв58810 0.0 1014295
21:00+19ссв59891 0.0 1015316